Stations météo

Publicité
Sete, France (7641): Température de l'air & dewpoint: 16.02.2017 07:00:00 - 22.02.2017 07:00:00 (CET)Sete, France (7641): Vitesse du vent & gusts: 16.02.2017 07:00:00 - 22.02.2017 07:00:00 (CET)Sete, France (7641): Direction du vent: 16.02.2017 07:00:00 - 22.02.2017 07:00:00 (CET)Sete, France (7641): reduced air pressure: 16.02.2017 07:00:00 - 22.02.2017 07:00:00 (CET)Sete, France (7641): visibility: 16.02.2017 07:00:00 - 22.02.2017 07:00:00 (CET)Sete, France (7641): Quantités de précipitations: 16.02.2017 07:00:00 - 22.02.2017 07:00:00 (CET)
Date & Time tt [°C] td [°C] ff [km/h] ff [knt] fx [km/h] fx [knt] dd ppp [hPa] vv [km] rr [mm]
22.02.2017 07:00:00 - - - - - - - - - -
22.02.2017 06:00:00 11,4 6,1 20 11 39 21 NW 1021,1 - 0,0
22.02.2017 05:00:00 11,6 6,5 22 12 41 22 NW 1021,3 - 0,0
22.02.2017 04:00:00 11,8 6,3 22 12 42 23 NW 1021,4 20 0,0
22.02.2017 03:00:00 11,7 6,6 18 10 36 19 NW 1021,7 - 0,0
22.02.2017 02:00:00 12,2 7,1 18 10 41 22 WNW 1022,2 - 0,0
22.02.2017 01:00:00 12,5 7,6 23 13 39 21 NW 1022,1 - 0,0
22.02.2017 00:00:00 12,7 7,8 22 12 39 21 WNW 1022,0 - 0,0
21.02.2017 23:00:00 12,6 7,9 18 10 48 26 WNW 1022,1 - 0,0
21.02.2017 22:00:00 13,3 8,1 31 17 50 27 NW 1021,8 - 0,0
21.02.2017 21:00:00 13,0 8,3 27 15 61 33 NW 1021,6 - 0,0
21.02.2017 20:00:00 13,0 8,5 25 14 42 23 NW 1021,7 - 0,0
21.02.2017 19:00:00 13,2 8,5 21 11 45 24 WNW 1021,6 20 0,0
21.02.2017 18:00:00 14,2 8,4 24 13 53 29 NW 1020,9 - 0,0
21.02.2017 17:00:00 14,8 8,5 28 15 52 28 NW 1020,8 - 0,0
21.02.2017 16:00:00 16,1 8,6 23 12 61 33 NNW 1020,7 - 0,0
21.02.2017 15:00:00 16,3 8,5 22 12 47 25 NNW 1021,3 - 0,0
21.02.2017 14:00:00 17,2 8,6 13 7 43 23 WNW 1021,8 - 0,0
21.02.2017 13:00:00 17,0 8,7 22 12 46 25 NW 1022,4 - 0,0
21.02.2017 12:00:00 16,0 8,2 21 11 44 24 NW 1023,3 - 0,0
21.02.2017 11:00:00 14,6 7,9 24 13 54 29 NNW 1023,6 - 0,0
21.02.2017 10:00:00 13,1 7,3 26 14 56 30 NNW 1023,7 25 0,0
21.02.2017 09:00:00 11,6 7,1 25 13 51 28 NW 1023,9 - 0,0
21.02.2017 08:00:00 10,4 6,7 29 16 50 27 NW 1023,6 - 0,0
21.02.2017 07:00:00 10,1 6,4 26 14 45 24 NW 1023,3 20 0,0
21.02.2017 06:00:00 9,8 6,0 24 13 51 28 NW 1023,5 - 0,0
21.02.2017 05:00:00 9,7 5,5 37 20 54 29 NNW 1023,2 - 0,0
21.02.2017 04:00:00 9,6 5,4 33 18 52 28 NW 1023,8 - 0,0
21.02.2017 03:00:00 9,2 4,8 34 18 53 29 NNW 1024,0 - 0,0
21.02.2017 02:00:00 9,0 4,8 23 12 44 24 NW 1024,6 - 0,0
21.02.2017 01:00:00 9,4 4,6 26 14 60 32 NW 1024,7 - 0,0
21.02.2017 00:00:00 9,9 4,7 32 18 51 28 NW 1024,5 - 0,0
20.02.2017 23:00:00 10,5 4,8 27 15 59 32 NW 1024,6 - 0,0
20.02.2017 22:00:00 10,9 5,0 32 17 57 31 NW 1024,7 - 0,0
20.02.2017 21:00:00 11,5 5,1 27 14 66 36 NW 1024,3 - 0,0
20.02.2017 20:00:00 12,0 4,9 29 16 58 31 NNW 1023,7 - 0,0
20.02.2017 19:00:00 12,9 4,8 22 12 45 24 NW 1023,3 20 0,0
20.02.2017 18:00:00 13,9 5,3 15 8 39 21 WNW 1023,0 - 0,0
20.02.2017 17:00:00 15,1 4,5 14 8 35 19 WNW 1022,9 - 0,0
20.02.2017 16:00:00 16,1 3,8 15 8 36 20 NW 1023,1 15 0,0
20.02.2017 15:00:00 16,4 3,8 8 5 39 21 WNW 1023,3 - 0,0
20.02.2017 14:00:00 16,1 3,2 13 7 44 24 NW 1023,8 - 0,0
20.02.2017 13:00:00 15,5 3,9 14 8 41 22 NW 1024,7 - 0,0
20.02.2017 12:00:00 14,4 3,5 14 7 34 18 WNW 1025,3 - 0,0
20.02.2017 11:00:00 13,4 5,5 10 6 29 16 WSW 1025,8 - 0,0
20.02.2017 10:00:00 11,0 5,1 14 8 36 20 W 1025,8 15 0,0
20.02.2017 09:00:00 9,8 4,2 12 7 26 14 WNW 1025,5 - 0,0
20.02.2017 08:00:00 9,2 4,0 11 6 30 16 NW 1025,4 - 0,0
20.02.2017 07:00:00 9,7 4,3 15 8 39 21 WNW 1024,9 - 0,0
20.02.2017 06:00:00 9,7 4,7 21 11 43 23 NW 1024,3 - 0,0
20.02.2017 05:00:00 9,7 4,7 18 10 36 19 NW 1024,2 - 0,0
20.02.2017 04:00:00 9,9 5,3 17 9 40 21 NW 1024,3 25 0,0
20.02.2017 03:00:00 10,5 5,7 24 13 44 24 NW 1024,3 - 0,0
20.02.2017 02:00:00 10,1 6,1 19 10 32 18 WNW 1024,8 - 0,0
20.02.2017 01:00:00 10,4 6,3 10 5 29 15 NW 1025,1 - 0,0
20.02.2017 00:00:00 11,0 6,7 13 7 45 24 NNW 1025,0 - 0,0
19.02.2017 23:00:00 11,6 6,9 21 11 47 26 NNW 1024,8 - 0,0
19.02.2017 22:00:00 11,9 6,8 22 12 45 24 NW 1024,5 - 0,0
19.02.2017 21:00:00 12,1 6,6 11 6 29 15 NW 1024,6 - 0,0
19.02.2017 20:00:00 13,0 6,1 14 8 30 16 WNW 1024,2 - 0,0
19.02.2017 19:00:00 12,7 9,0 12 6 24 13 W 1023,9 12 0,0
19.02.2017 18:00:00 13,1 9,3 14 7 29 16 SW 1023,7 - 0,0
19.02.2017 17:00:00 13,0 10,4 16 8 30 16 SSW 1024,0 - 0,0
19.02.2017 16:00:00 13,3 10,3 15 8 31 17 SSW 1024,3 - 0,0
19.02.2017 15:00:00 13,2 9,8 12 6 24 13 SSW 1024,8 - 0,0
19.02.2017 14:00:00 13,3 7,7 12 6 21 11 SSW 1025,6 - 0,0
19.02.2017 13:00:00 14,1 7,8 8 4 17 9 SW 1026,5 12 0,0
19.02.2017 12:00:00 13,0 6,8 7 4 16 9 SSW 1027,4 - 0,0
19.02.2017 11:00:00 13,3 7,1 4 2 12 7 SSE 1027,3 - 0,0
19.02.2017 10:00:00 11,3 5,4 7 4 21 11 NNE 1027,3 12 0,0
19.02.2017 09:00:00 10,3 5,5 9 5 18 10 N 1026,8 - 0,0
19.02.2017 08:00:00 9,2 6,1 10 5 19 10 N 1026,4 - 0,0
19.02.2017 07:00:00 9,2 6,3 10 5 20 11 N 1025,8 - 0,0
19.02.2017 06:00:00 9,8 7,7 10 5 18 10 N 1025,3 - 0,0
19.02.2017 05:00:00 9,5 7,4 10 6 16 9 N 1025,0 - 0,0
19.02.2017 04:00:00 9,8 7,7 6 3 7 4 N 1024,8 - 0,0
19.02.2017 03:00:00 10,5 8,1 6 3 12 7 N 1024,7 - 0,0
19.02.2017 02:00:00 11,1 8,3 10 6 16 9 NNW 1024,5 - 0,0
19.02.2017 01:00:00 11,3 8,3 13 7 17 9 NNW 1024,2 - 0,0
19.02.2017 00:00:00 11,4 8,4 10 6 14 8 NW 1024,0 - 0,0
18.02.2017 23:00:00 11,0 8,9 6 3 9 5 W 1023,9 - 0,0
18.02.2017 22:00:00 10,9 8,3 2 1 7 4 SE 1023,6 - 0,0
18.02.2017 21:00:00 11,4 8,1 3 2 10 6 NNE 1023,3 - 0,0
18.02.2017 20:00:00 11,7 8,2 5 3 9 5 NNE 1022,9 - 0,0
18.02.2017 19:00:00 11,8 8,3 5 3 9 5 NNE 1022,5 20 0,0
18.02.2017 18:00:00 12,3 8,0 4 2 16 9 E 1022,1 - 0,0
18.02.2017 17:00:00 13,1 8,0 8 4 20 11 E 1021,7 - 0,0
18.02.2017 16:00:00 13,8 7,1 7 4 22 12 E 1021,6 20 0,0
18.02.2017 15:00:00 14,3 7,1 10 5 22 12 E 1021,5 - 0,0
18.02.2017 14:00:00 14,2 5,0 11 6 30 16 ENE 1022,0 - 0,0
18.02.2017 13:00:00 13,4 3,5 18 10 34 18 NE 1022,4 15 0,0
18.02.2017 12:00:00 12,4 2,3 23 12 42 23 NNE 1023,0 - 0,0
18.02.2017 11:00:00 11,7 3,2 19 10 33 18 NNE 1023,3 - 0,0
18.02.2017 10:00:00 11,9 2,6 18 10 32 18 N 1023,1 15 0,0
18.02.2017 09:00:00 11,1 3,1 14 8 23 12 NNE 1023,2 - 0,0
18.02.2017 08:00:00 10,5 4,2 7 4 16 9 ENE 1022,7 - 0,0
18.02.2017 07:00:00 9,7 6,6 3 2 13 7 SSW 1022,1 20 0,0
18.02.2017 06:00:00 11,0 5,9 10 5 16 9 NW 1022,1 - 0,0
18.02.2017 05:00:00 11,1 6,8 8 4 23 12 WNW 1022,1 - 0,0
18.02.2017 04:00:00 10,7 5,7 18 10 32 18 NNW 1022,4 15 0,0
18.02.2017 03:00:00 10,2 6,2 23 12 35 19 N 1023,0 - 0,0
18.02.2017 02:00:00 10,3 6,4 22 12 35 19 N 1023,5 - 0,0
18.02.2017 01:00:00 10,6 6,5 17 9 25 14 N 1023,9 - 0,0
18.02.2017 00:00:00 11,1 7,6 19 10 26 14 N 1024,0 - 0,0
17.02.2017 23:00:00 11,1 9,5 17 9 23 13 NNE 1024,3 - 0,0
17.02.2017 22:00:00 10,9 10,7 14 8 23 13 N 1024,5 - 0,0
17.02.2017 21:00:00 10,9 10,0 16 9 27 15 N 1024,2 - 0,0
17.02.2017 20:00:00 11,1 10,5 16 8 25 14 W 1023,7 - 0,0
17.02.2017 19:00:00 11,2 10,9 17 9 26 14 W 1023,6 8 0,0
17.02.2017 18:00:00 11,5 11,0 17 9 26 14 SW 1023,5 - 0,0
17.02.2017 17:00:00 11,9 10,6 16 9 27 15 SSW 1023,7 - 0,0
17.02.2017 16:00:00 12,0 9,7 14 8 22 12 SSW 1024,2 - 0,0
17.02.2017 15:00:00 13,4 10,4 7 4 15 8 SW 1024,9 - 0,0
17.02.2017 14:00:00 12,3 10,7 7 4 18 10 WSW 1026,0 - 0,0
17.02.2017 13:00:00 10,1 9,5 13 7 21 11 SW 1026,8 0,1 0,0
17.02.2017 12:00:00 9,6 9,6 10 5 17 9 WSW 1027,9 - 0,0
17.02.2017 11:00:00 9,2 9,2 6 3 14 8 WSW 1028,3 - 0,0
17.02.2017 10:00:00 8,5 8,5 2 1 11 6 ESE 1028,5 - 0,0
17.02.2017 09:00:00 8,5 8,5 4 2 9 5 ENE 1028,5 - 0,0
17.02.2017 08:00:00 8,3 8,3 3 1 6 3 NNE 1028,3 - 0,0
17.02.2017 07:00:00 8,3 8,3 2 1 7 4 NE 1028,2 - 0,0
17.02.2017 06:00:00 8,2 8,2 5 3 7 4 NNE 1028,3 - 0,2
17.02.2017 05:00:00 8,5 8,5 0 0 4 2 N 1028,6 - 0,0
17.02.2017 04:00:00 8,9 8,4 3 2 5 3 S 1028,8 2,0 0,0
17.02.2017 03:00:00 9,7 9,1 0 0 5 3 N 1029,2 - 0,0
17.02.2017 02:00:00 10,3 9,2 3 2 19 10 ENE 1029,8 - 0,0
17.02.2017 01:00:00 11,1 10,0 11 6 23 12 WNW 1030,0 - 0,0
17.02.2017 00:00:00 11,3 10,0 15 8 22 12 WNW 1030,3 - 0,0
16.02.2017 23:00:00 10,7 9,8 16 8 21 11 WNW 1030,9 - 0,0
16.02.2017 22:00:00 10,9 10,6 16 8 23 12 WNW 1031,1 - 0,0
16.02.2017 21:00:00 11,0 10,7 8 5 18 10 W 1031,1 - 0,0
16.02.2017 20:00:00 11,3 10,7 12 6 19 11 SW 1030,8 - 0,0
16.02.2017 19:00:00 11,4 10,5 10 5 14 8 SW 1030,8 - 0,0
16.02.2017 18:00:00 12,0 11,1 8 4 15 8 SSW 1030,8 - 0,0
16.02.2017 17:00:00 12,6 10,8 8 4 14 8 S 1030,8 - 0,0
16.02.2017 16:00:00 13,2 11,1 7 4 16 8 SSE 1031,0 - 0,0
16.02.2017 15:00:00 13,6 12,0 10 5 15 8 SSE 1031,3 - 0,0
16.02.2017 14:00:00 13,0 11,9 6 4 14 7 ESE 1032,0 - 0,0
16.02.2017 13:00:00 12,6 12,6 5 3 11 6 E 1032,8 0,2 0,0
16.02.2017 12:00:00 11,7 11,7 5 3 12 6 NE 1033,5 - 0,0
16.02.2017 11:00:00 11,6 11,6 5 3 13 7 NE 1033,5 - 0,0
16.02.2017 10:00:00 11,3 11,3 6 3 16 9 NE 1033,7 - 0,0
16.02.2017 09:00:00 11,3 11,3 8 4 18 10 ENE 1033,5 - 0,0
16.02.2017 08:00:00 11,1 11,1 10 5 20 11 NE 1033,2 - 0,0
16.02.2017 07:00:00 11,1 11,1 10 6 19 10 NE 1033,1 0,1 0,0

tt = Température de l'air
td = dewpoint
ff = Vitesse du vent
fx = gusts
dd = Direction du vent
ppp = reduced air pressure
vv = visibility
rr = Quantités de précipitations

stations d'obs. à proximité